Location: *
(57.8420°S, 159.8600°W)
Time: 04:12:24
(UTC+00:00)

Cosmos 2266 Rocket - Pass Details

Date: 18 May 2021
Orbit: 933 x 1009 km, 82.9° (Epoch: 23 June)

Event Time Altitude Azimuth Distance (km) Brightness Sun altitude
Rises 04:32:31 0° 23° (NNE) 3,607 6.9 -16.1°
Reaches altitude 10° 04:35:09 10° 31° (NNE) 2,676 6.1 -16.4°
Maximum altitude 04:40:38 36° 94° (E) 1,496 4.4 -17.1°
Drops below altitude 10° 04:46:14 10° 158° (SSE) 2,743 6.1 -17.9°
Sets 04:48:58 0° 165° (SSE) 3,708 6.8 -18.2°
